Theta_e
312 312 312 312 312 311 312 314 314 313 310 309 308 307 307 307 307 307 308 311 312 312 312 311 311 312 316 316 319 323 326 325 325 329 344 349 348 348 350 352 354 354 353 350 350 347 349
311 311 311 311 311 311 311 311 312 310 308 308 308 307 306 306 306 306 308 309 311 312 312 311 311 312 319 319 321 331 326 325 323 337 342 350 350 347 352 353 352 350 350 349 348 347 347
310 310 310 311 310 310 310 310 309 308 308 309 309 308 306 306 306 307 307 308 309 311 312 311 313 315 316 315 326 326 325 324 325 334 341 349 347 348 352 356 352 352 350 348 348 348 349
310 310 310 310 310 309 310 308 307 308 308 308 308 308 307 306 306 306 307 308 309 311 312 311 313 316 312 317 319 323 322 327 330 331 336 342 348 350 354 350 350 352 346 352 348 350 350
310 309 309 309 309 309 307 307 306 306 307 307 308 307 306 306 306 306 307 308 309 312 313 313 318 314 314 319 319 322 321 324 330 333 334 339 347 348 353 354 354 351 352 352 350 347 347
309 309 309 308 309 308 308 307 307 307 306 305 306 306 306 306 306 306 308 309 314 313 313 318 321 318 317 320 322 321 321 323 329 331 334 340 338 346 347 354 361 357 355 355 353 351 350
308 308 308 308 308 308 309 307 307 307 307 305 305 306 306 305 305 307 308 311 313 312 318 312 313 315 317 320 320 321 322 326 329 331 335 334 338 345 346 351 354 354 355 356 354 352 353
308 308 308 307 308 308 307 307 307 307 307 306 305 306 306 305 306 307 308 309 311 312 313 312 314 315 317 319 320 320 321 322 325 331 335 334 339 337 340 343 344 345 349 355 353 353 352
308 308 307 307 307 307 307 306 306 307 307 306 306 307 306 306 307 311 311 311 313 312 312 313 313 315 317 319 319 319 318 321 325 330 335 337 339 337 340 340 342 345 354 353 355 353 350
306 307 307 307 307 307 307 306 306 307 307 305 306 308 307 306 310 308 311 315 311 313 310 314 316 316 319 319 321 319 318 320 327 331 334 336 334 338 339 339 338 339 342 349 352 348 350
308 305 306 307 307 306 306 306 306 306 305 305 307 307 307 306 306 309 313 310 313 310 314 315 318 319 318 318 319 318 318 320 324 334 334 337 335 337 338 336 336 335 333 337 345 346 345
306 305 305 307 306 305 306 306 306 305 305 306 307 307 306 307 306 308 309 312 313 314 317 321 320 320 321 318 319 318 321 321 324 331 329 334 326 327 330 328 328 328 338 338 338 341 347
308 304 304 307 306 306 306 306 304 304 305 306 306 306 306 306 307 312 307 310 315 316 316 322 321 319 318 318 319 319 319 323 325 330 331 328 329 326 326 329 327 335 339 346 346 347 348
308 307 304 305 306 306 306 306 304 304 306 306 306 305 308 308 307 307 311 312 318 316 317 317 318 316 318 317 318 317 317 318 320 322 321 328 331 326 326 327 331 335 339 344 348 344 343
306 307 307 304 304 304 304 303 304 304 305 306 306 309 309 309 308 307 309 312 314 314 319 319 319 320 319 317 317 317 316 315 317 319 323 324 327 322 324 326 325 330 338 335 338 335 340
308 307 305 306 306 304 304 304 304 305 305 307 307 310 311 310 309 309 310 313 313 314 315 318 322 321 319 317 317 316 314 314 316 318 320 321 324 321 323 324 330 327 330 337 333 343 347
307 306 304 305 306 304 304 304 304 305 306 306 308 310 312 312 309 308 312 311 314 314 314 317 318 320 320 320 315 313 315 315 314 314 318 317 318 319 319 320 321 336 336 334 333 334 340
307 308 307 304 304 305 304 305 305 305 306 307 303 315 311 308 307 303 310 311 312 314 311 313 315 317 320 320 318 315 316 316 313 315 319 316 316 319 319 318 318 328 331 333 333 339 335
307 308 309 306 304 305 304 306 305 307 308 308 302 306 311 309 307 307 307 310 312 311 311 312 316 316 317 318 320 317 316 317 314 316 316 316 316 318 318 317 320 324 331 329 329 333 339
308 308 308 304 304 304 305 306 306 307 308 308 304 315 310 305 303 305 310 311 311 312 311 311 312 314 316 318 316 320 322 323 317 316 333 322 312 317 318 318 319 326 334 332 332 337 335
308 308 308 303 305 306 307 306 306 307 307 307 302 311 311 313 310 312 315 317 316 319 315 311 313 313 315 316 320 319 320 324 322 344 321 316 317 315 316 318 321 322 323 333 333 332 336
308 307 307 304 305 306 306 308 307 307 307 307 305 313 311 313 314 313 313 317 317 317 318 319 313 315 312 315 316 322 324 323 326 319 317 312 318 317 320 318 319 339 338 327 342 331 332
307 307 305 306 306 307 307 309 307 307 305 305 305 306 310 313 314 315 314 319 318 320 319 319 315 317 316 315 315 315 317 318 322 321 314 313 313 315 319 318 328 331 338 342 340 337 337
307 307 306 306 306 307 308 309 308 308 307 306 305 304 311 317 316 320 321 320 322 322 323 323 316 316 316 316 315 317 319 317 318 320 311 311 313 313 316 321 324 332 334 334 334 332 331
307 307 307 307 307 307 308 308 308 308 309 307 306 304 309 315 316 319 320 320 319 320 322 323 321 313 314 319 318 320 319 322 323 314 318 310 312 314 317 325 335 338 334 335 342 334 328
307 307 307 307 307 307 308 308 308 308 308 307 306 306 305 311 314 316 318 318 319 318 318 321 318 313 315 314 317 320 322 321 325 325 316 315 313 319 325 339 342 334 330 326 330 342 326
307 307 307 307 307 307 308 308 309 308 308 307 306 307 307 310 310 314 317 317 316 316 316 315 316 317 315 316 319 320 322 322 327 332 332 321 322 323 333 332 332 325 323 325 339 339 325
306 307 307 307 308 307 308 308 309 308 307 308 308 308 309 308 309 311 314 315 314 313 316 314 318 316 319 319 319 320 321 323 332 332 331 327 326 332 329 332 336 321 324 334 327 322 322
306 306 307 308 308 308 309 310 309 306 307 307 309 311 310 307 309 312 314 314 314 314 312 312 316 316 316 319 320 318 328 326 326 333 324 329 325 325 325 325 321 321 321 319 318 319 320
Wind_Speed
14 14 15 16 16 16 14 15 15 16 16 16 15 15 15 15 15 16 15 13 13 13 13 13 12 12 3 2 5 5 3 11 7 4 1 3 2 2 1 1 2 1 4 5 2 3 6
14 14 14 15 15 16 17 17 16 16 16 17 17 17 16 16 16 16 15 13 12 12 13 12 10 8 2 1 3 2 5 9 6 4 3 1 2 3 3 3 2 3 4 7 7 3 5
14 15 14 14 15 17 17 17 17 17 17 18 18 18 17 17 17 16 15 14 12 11 10 9 7 5 2 8 3 7 6 5 5 4 1 2 3 4 3 3 2 1 4 3 5 4 3
14 14 15 15 16 17 18 19 18 17 19 19 19 20 19 18 18 17 17 14 12 10 7 5 4 2 6 3 8 6 5 5 5 7 2 2 3 3 1 1 5 5 4 3 4 2 0
14 14 15 15 16 18 17 20 19 19 20 21 21 21 20 19 19 19 17 15 11 4 2 1 2 3 7 6 5 7 7 3 4 4 4 3 3 1 3 3 3 6 2 2 4 1 2
13 13 14 15 15 18 19 19 20 21 22 22 22 22 21 20 19 20 17 10 2 1 2 1 1 3 4 1 3 2 9 6 0 1 4 3 4 3 4 5 1 3 4 4 4 1 2
13 14 14 15 16 17 18 20 21 22 22 24 23 22 21 21 20 18 15 1 4 2 0 7 4 2 4 10 2 2 5 7 2 6 3 2 4 3 3 1 2 1 2 5 4 2 4
14 14 14 15 16 17 19 20 20 22 22 24 23 23 22 20 21 12 4 6 6 0 6 6 5 6 7 1 3 3 8 6 3 3 2 5 3 4 4 2 2 3 3 5 7 3 1
14 14 15 15 16 17 20 20 21 23 23 25 24 24 23 21 12 4 3 8 6 2 2 7 5 4 4 9 6 6 6 5 4 5 3 5 4 4 3 2 3 2 3 3 5 4 2
13 14 15 15 16 17 19 21 22 23 24 25 23 24 24 22 2 9 2 2 16 7 5 6 3 6 5 6 3 7 7 6 2 9 7 4 4 3 2 2 4 4 2 4 5 1 2
16 12 14 15 17 17 19 21 22 25 26 24 22 25 23 16 9 3 3 14 3 3 2 3 3 1 1 8 3 3 4 6 8 6 6 7 1 2 2 4 3 6 3 4 4 4 3
17 15 14 16 18 17 18 20 23 26 26 24 24 26 22 7 9 6 7 6 4 5 5 0 4 5 5 1 1 2 4 5 4 5 3 6 2 2 5 3 3 6 2 6 5 3 3
17 16 15 16 17 17 19 19 25 26 25 25 27 21 18 12 3 2 11 3 5 3 4 3 4 4 3 4 2 2 6 5 6 5 3 5 4 3 3 5 4 5 5 3 3 4 5
15 16 16 15 16 18 19 21 24 26 26 28 26 17 13 14 3 0 1 5 4 4 5 4 2 4 6 5 3 2 6 5 1 6 4 5 6 6 3 8 4 2 6 5 5 4 4
16 16 17 16 17 19 20 21 23 25 26 33 20 8 7 6 13 8 4 2 7 6 2 4 1 4 2 2 5 3 5 8 8 7 6 5 5 4 4 4 7 2 1 2 7 3 2
17 18 17 17 18 19 20 21 23 24 27 26 12 6 4 3 11 8 4 5 4 3 4 2 2 2 6 6 4 6 6 6 7 11 5 7 0 2 2 3 4 3 3 3 3 4 2
16 17 17 16 17 19 19 21 23 24 28 13 3 2 7 7 11 4 4 6 5 6 3 1 0 1 2 5 7 6 9 3 6 7 4 5 4 5 1 4 8 2 2 6 4 3 5
16 17 17 17 15 17 18 19 21 22 27 9 3 2 6 14 4 1 4 6 3 3 2 2 1 2 2 2 5 6 11 7 11 11 11 7 5 4 10 3 1 3 6 6 5 4 2
16 17 18 17 15 15 16 18 18 18 19 7 2 2 3 6 4 1 3 3 3 3 3 1 3 4 0 1 1 6 6 6 9 9 11 8 2 1 9 6 1 4 5 5 5 4 7
17 17 17 15 14 14 15 16 16 16 17 6 1 2 3 3 1 5 5 3 3 2 4 4 4 1 1 2 3 2 3 0 8 7 9 13 4 8 8 8 5 4 5 4 5 4 6
17 17 15 13 13 14 15 14 15 17 18 1 2 1 1 4 4 2 1 2 3 2 3 5 2 6 6 4 1 4 4 4 5 6 8 7 9 7 6 5 2 1 2 9 8 5 6
17 16 14 12 13 14 14 14 14 16 14 2 2 1 3 1 1 6 5 4 6 5 4 5 5 4 8 7 8 4 2 3 4 1 4 2 4 5 4 5 5 4 3 6 2 3 4
16 15 12 13 14 13 12 12 12 15 11 4 3 1 2 3 1 4 4 4 5 4 7 8 8 2 3 11 8 13 5 4 3 6 5 7 7 5 7 5 7 2 1 3 4 4 3
15 14 12 12 13 12 11 10 10 13 13 5 2 1 2 1 1 2 1 2 4 4 4 3 5 5 6 6 1 4 1 5 6 3 3 6 6 3 4 4 3 4 7 12 12 6 8
14 13 13 13 13 11 10 10 10 11 12 10 3 1 1 1 1 1 3 3 7 4 4 5 5 6 4 1 2 4 3 4 2 5 3 3 5 4 5 4 2 3 6 1 4 4 8
14 13 12 12 12 11 10 10 10 9 11 11 5 6 2 2 3 2 2 2 2 4 5 4 4 5 2 3 2 6 6 6 4 3 5 6 5 4 3 7 7 3 3 5 3 4 6
13 12 12 12 14 11 11 10 10 9 9 9 4 5 2 1 4 1 1 2 1 1 3 4 6 7 2 3 3 4 4 4 4 5 2 4 4 5 3 4 1 1 9 5 4 6 3
13 12 11 12 12 11 10 10 9 8 7 8 3 6 2 2 5 5 3 1 3 2 1 4 2 3 4 3 3 3 3 2 5 3 3 3 3 2 2 5 3 10 4 5 4 5 7
13 12 11 11 11 11 11 11 9 7 5 6 1 1 4 2 5 6 16 21 17 15 2 2 3 3 3 2 1 2 3 3 1 3 4 3 3 5 2 4 3 5 9 9 10 8 5
Wind_Direction
18 17 15 18 16 16 9 2 359 358 359 358 353 351 346 342 338 336 334 334 329 329 333 341 339 343 12 357 257 344 102 154 164 178 132 101 67 132 103 244 181 32 320 304 218 53 110
17 16 13 12 13 10 12 9 2 358 357 357 354 350 347 340 336 335 333 331 325 322 326 337 338 347 24 267 321 309 158 163 186 178 148 173 136 184 78 1 55 312 290 313 35 112 96
16 18 11 8 9 4 5 5 3 0 357 356 355 350 345 342 337 333 330 325 318 314 317 325 338 2 62 233 129 98 151 196 190 183 145 190 120 54 121 324 271 335 29 19 38 343 124
13 13 13 9 6 7 5 0 0 357 356 353 352 350 346 341 336 329 324 319 311 303 303 319 337 13 244 239 228 234 211 240 219 215 217 205 178 79 156 280 14 17 57 74 309 355 158
12 9 7 5 3 360 5 7 5 1 356 352 349 347 346 341 333 325 326 321 311 294 283 338 19 48 270 300 254 241 215 208 166 211 217 113 119 105 36 70 31 15 38 1 306 239 154
7 4 3 3 1 1 2 2 1 360 360 355 349 345 344 342 333 326 332 330 5 137 146 95 33 23 284 42 310 200 203 213 259 59 86 65 49 71 37 54 77 26 8 312 267 261 62
359 357 356 354 351 352 352 356 356 356 355 354 350 346 342 340 332 330 338 65 22 357 210 196 188 247 295 335 336 210 156 133 82 50 117 29 79 207 187 234 157 257 219 260 267 220 176
356 353 351 350 349 349 347 348 351 352 351 351 350 347 342 340 330 333 9 92 102 277 316 242 234 281 265 11 314 286 159 129 135 157 123 19 259 208 141 168 282 266 271 283 289 184 330
350 350 350 346 344 342 344 346 346 346 347 347 348 347 343 342 336 38 23 129 359 338 135 296 198 211 197 152 209 251 135 130 130 131 152 165 210 126 132 59 334 270 183 229 254 3 71
344 344 346 344 342 340 339 341 342 343 342 343 345 345 341 344 67 343 319 157 323 172 54 270 248 272 144 156 254 210 174 133 104 175 147 236 270 240 194 254 173 347 209 255 270 106 244
353 355 345 346 343 338 337 338 341 340 338 339 341 340 335 341 308 268 146 331 123 131 9 202 191 20 37 161 147 210 186 54 158 158 122 236 239 198 148 167 169 240 340 281 206 126 95
350 350 352 350 340 341 338 337 338 336 335 334 334 333 328 327 301 261 303 351 135 48 254 189 129 156 122 283 111 112 125 66 143 124 67 202 315 275 164 250 220 262 59 41 46 82 28
342 346 346 348 347 344 340 338 334 335 334 332 328 320 308 286 238 298 331 86 56 150 305 172 180 154 134 160 112 138 144 142 150 126 226 352 282 266 151 331 356 80 62 352 9 16 215
339 340 343 340 341 339 337 331 334 335 334 333 324 309 290 257 234 8 333 60 176 235 250 311 96 93 164 153 198 88 113 160 65 101 108 154 315 174 185 179 187 159 153 156 189 188 244
341 337 337 339 333 331 331 334 338 337 336 335 326 307 276 263 219 219 81 121 204 208 286 345 355 121 169 203 144 127 171 192 189 174 143 131 264 280 208 153 131 182 159 175 102 12 68
339 338 333 336 336 337 338 341 342 340 338 337 326 320 270 267 169 150 87 219 226 219 327 22 188 138 165 182 137 146 173 199 197 189 153 194 149 245 305 95 49 143 145 74 18 133 237
341 342 339 334 336 339 341 342 343 343 341 341 334 30 341 159 139 57 175 221 246 252 253 45 177 33 160 175 168 179 204 255 200 168 115 128 103 290 130 178 174 62 66 52 110 107 159
336 337 335 338 333 338 343 345 346 349 349 355 358 95 357 141 70 20 160 193 218 273 318 338 213 223 189 133 162 208 201 231 160 149 158 199 157 204 236 226 321 175 168 148 127 214 86
336 337 337 336 334 335 342 345 350 354 359 343 40 277 127 345 139 233 258 245 223 208 249 12 291 191 239 112 230 204 202 220 163 147 159 179 198 59 341 0 70 190 176 127 112 89 187
336 338 340 340 343 342 343 346 348 349 345 336 95 88 346 49 222 149 151 206 236 248 245 207 245 181 199 279 196 291 260 310 178 197 173 127 137 167 198 206 162 171 161 155 120 128 168
341 339 337 340 345 347 346 347 347 348 343 164 42 240 245 196 265 187 116 158 165 271 231 194 240 213 174 219 247 225 237 323 56 139 140 130 189 181 220 213 214 121 159 168 187 176 160
342 341 340 339 342 349 345 348 348 354 352 12 107 39 354 205 305 135 171 232 208 237 213 258 212 201 188 194 195 198 164 184 194 131 132 23 200 148 222 195 179 95 5 131 68 84 295
340 342 341 340 342 343 343 353 355 2 8 24 344 316 113 312 55 111 206 198 235 157 237 212 220 147 204 232 226 245 216 310 266 164 158 151 136 121 240 142 123 23 220 141 122 80 289
338 343 340 337 338 341 342 355 358 359 10 4 353 15 80 232 135 146 172 298 246 235 248 265 206 185 240 348 250 159 224 275 236 227 137 141 115 85 137 72 161 291 101 112 100 45 1
336 334 340 342 340 339 342 345 351 350 345 348 296 168 112 171 269 308 327 272 299 294 234 229 241 208 350 356 48 62 336 320 139 47 212 118 128 89 129 88 101 294 264 108 131 9 7
332 333 333 337 335 335 334 332 332 332 333 336 310 197 120 116 249 302 303 317 333 320 324 262 313 323 132 118 125 150 184 193 208 114 74 80 74 103 126 124 190 226 100 8 121 32 5
325 329 335 332 330 330 327 324 323 324 326 325 277 179 131 146 266 205 208 244 337 346 253 302 342 346 0 118 124 154 207 198 145 114 19 29 21 119 121 111 283 26 301 287 117 177 46
322 326 332 329 328 330 327 322 319 315 321 326 268 206 197 192 274 207 253 297 344 112 2 291 21 341 15 74 142 204 122 179 88 65 73 116 112 109 93 99 186 356 323 170 161 95 100
320 322 324 328 329 334 328 323 319 316 321 327 278 185 232 197 249 269 265 265 243 228 152 290 204 240 217 69 22 121 90 66 131 129 5 41 167 143 85 137 321 319 77 71 83 86 51